Home   Weather   Feira de Santana   Past weeks
Flag for Brazil

Past Weather in Feira de Santana, Bahia, Brazil — Yesterday and Last 2 Weeks

Now
79 °F

Passing clouds.


Feels Like: 81 °F
Forecast: 87 / 66 °F
Wind: 9 mph from Southeast

Location: Salvador Aeroporto

Current Time: Oct 17, 2019 at 3:34:18 am

Latest Report: Oct 17, 2019 at 3:00 am


Visibility: N/A

Pressure: 30.01 "Hg

Humidity: 70%

Dew Point: 68 °F

Location of Feira de SantanaLocation

Past Weather in Feira de Santana — Graph

°F

Feira de Santana Temperature Yesterday

Maximum temperature yesterday: 84 °F (at 12:00 pm)
Minimum temperature yesterday: 77 °F (at 5:00 am)
Average temperature yesterday: 80 °F

High & Low Weather Summary for the Past Weeks

 TemperatureHumidityPressure
High84 °F (Oct 8, 12:00 pm)89% (Oct 2, 5:33 am)30.09 "Hg (Oct 2, 5:33 am)
Low70 °F (Oct 2, 6:00 pm)58% (Oct 6, 10:00 am)29.92 "Hg (Oct 6, 2:00 am)
Average79 °F77%30.01 "Hg
* Reported Oct 2 2:00 am — Oct 17 2:00 am, Feira de Santana. Weather by CustomWeather, © 2019

Note: Actual official high and low records may vary slightly from our data, if they occured in-between our weather recording intervals... More about our weather records

Advertising

Feira de Santana Weather History for the Previous 24 Hours

Scroll right to see more
 ConditionsComfort  
Time TempWeatherWind HumidityBarometerVisibility
2:00 am
Thu, Oct 17
79 °FPassing clouds.10 mph70%30.01 "HgN/A
1:00 am79 °FPassing clouds.10 mph70%30.04 "HgN/A
12:00 am79 °FPassing clouds.8 mph70%30.04 "HgN/A
11:00 pm
Wed, Oct 16
79 °FPassing clouds.9 mph70%30.04 "HgN/A
10:00 pm79 °FPassing clouds.8 mph70%30.04 "HgN/A
9:00 pm79 °FPassing clouds.9 mph70%30.04 "HgN/A
8:00 pm79 °FPassing clouds.8 mph70%30.01 "HgN/A
7:00 pm79 °FPassing clouds.7 mph70%30.01 "HgN/A
6:00 pm81 °FPassing clouds.8 mph62%29.98 "HgN/A
5:00 pm81 °FScattered clouds.10 mph66%29.98 "HgN/A
4:00 pm82 °FScattered clouds.12 mph66%29.98 "HgN/A
3:00 pm82 °FScattered clouds.13 mph62%29.98 "HgN/A
2:00 pm82 °FScattered clouds.13 mph62%30.01 "HgN/A
1:00 pm82 °FScattered clouds.14 mph62%30.04 "HgN/A
12:00 pm84 °FScattered clouds.12 mph58%30.07 "HgN/A
11:00 am82 °FBroken clouds.10 mph66%30.07 "HgN/A
10:00 am81 °FBroken clouds.12 mph70%30.07 "HgN/A
9:00 am82 °FScattered clouds.14 mph66%30.07 "HgN/A
8:00 am81 °FScattered clouds.13 mph70%30.07 "HgN/A
7:00 am81 °FScattered clouds.10 mph74%30.04 "HgN/A
6:00 am79 °FScattered clouds.10 mph74%30.01 "HgN/A
5:00 am77 °FPassing clouds.7 mph79%29.98 "HgN/A
4:00 am79 °FPassing clouds.9 mph79%29.98 "HgN/A
3:00 am79 °FPassing clouds.12 mph74%29.98 "HgN/A
Weather by CustomWeather, © 2019

See weather overview